Location: Del Amo
(33.8464°N, 118.2104°W)
Time: 07:44:50
(UTC+00:00)

Vanguard 1 Rocket - Pass Details

Date: 16 September 2024
Orbit: 650 x 4218 km, 34.3° (Epoch: 09 October)

Event Time Altitude Azimuth Distance (km) Brightness Sun altitude
Rises 08:51:24 0° 206° (SSW) 4,314 - -50.8°
Reaches altitude 10° 08:54:05 10° 197° (SSW) 3,688 - -50.5°
Maximum altitude 09:03:06 36° 134° (SE) 3,190 - -49.6°
Exits shadow 09:05:44 34° 115° (ESE) 3,552 10.2 -49.4°
Drops below altitude 10° 09:18:52 10° 77° (ENE) 6,434 12.0 -47.9°
Sets 09:25:29 0° 71° (ENE) 7,926 12.7 -47.1°
